FIN64E RJTT-EFHK

Flight info

Callsign FIN64E
Flight time N/A
Altitude 41000
Route ROVER3B INUBO Y808 PUTER A590 POWAL/N0499F370 DCT OPAKE DCT MARCC DCT JUJXI/N0501F380 DCT 80N165W DCT DEKMO/N0495F400 DCT 89N060W/M085F390 82N010E/N0495F390 DCT TETNI/N0488F410 DCT GOSVA Y86 LUSEP LUSEP5A
Aircraft A359/H-SDE2E3GHIJ3J4J5LM1ORWXY/LB1D1

Departure

Time N/A
Airport Tokyo Haneda International Airport (RJTT)

Arrival

Time 2026-04-21 10:06
Airport Helsinki Vantaa Airport (EFHK)
Time Latitude Longitude Altitude Speed Heading
2026-04-21 09:37 62.94859 25.19001 41237 ft 513 kts 169°
2026-04-21 09:37 62.91332 25.20248 41237 ft 513 kts 169°
2026-04-21 09:38 62.84278 25.22735 41236 ft 513 kts 169°
2026-04-21 09:38 62.77230 25.25207 41240 ft 513 kts 169°
2026-04-21 09:39 62.70290 25.27629 41247 ft 513 kts 169°
2026-04-21 09:39 62.63234 25.30080 41239 ft 513 kts 169°
2026-04-21 09:40 62.56181 25.32518 41168 ft 512 kts 169°
2026-04-21 09:40 62.52699 25.33440 40737 ft 509 kts 175°
2026-04-21 09:40 62.49153 25.33655 39995 ft 512 kts 178°
2026-04-21 09:41 62.45569 25.33624 39218 ft 516 kts 180°
2026-04-21 09:41 62.41969 25.33467 38378 ft 519 kts 180°
2026-04-21 09:41 62.38351 25.33255 37574 ft 519 kts 180°
2026-04-21 09:41 62.34746 25.33032 36900 ft 517 kts 180°
2026-04-21 09:42 62.31148 25.32819 36214 ft 516 kts 180°
2026-04-21 09:42 62.27571 25.32621 35530 ft 515 kts 180°
2026-04-21 09:42 62.23990 25.32437 34839 ft 514 kts 180°
2026-04-21 09:42 62.20400 25.32261 34009 ft 516 kts 180°
2026-04-21 09:43 62.16809 25.32091 33123 ft 516 kts 180°
2026-04-21 09:43 62.13219 25.31925 32319 ft 515 kts 180°
2026-04-21 09:43 62.09631 25.31759 31479 ft 515 kts 180°
2026-04-21 09:43 62.06039 25.31595 30650 ft 516 kts 180°
2026-04-21 09:44 62.02443 25.31431 29686 ft 518 kts 181°
2026-04-21 09:44 61.98861 25.31258 28998 ft 513 kts 181°
2026-04-21 09:44 61.96098 25.31122 28503 ft 508 kts 181°
2026-04-21 09:44 61.94273 25.31031 28175 ft 505 kts 181°
2026-04-21 09:45 61.90813 25.30862 27543 ft 501 kts 181°
2026-04-21 09:45 61.87344 25.30697 26931 ft 496 kts 181°
2026-04-21 09:45 61.83915 25.30537 26326 ft 492 kts 181°
2026-04-21 09:45 61.80510 25.30380 25701 ft 488 kts 181°
2026-04-21 09:46 61.77125 25.30223 25089 ft 483 kts 181°
2026-04-21 09:46 61.73773 25.30068 24497 ft 479 kts 181°
2026-04-21 09:46 61.70454 25.29915 23879 ft 475 kts 181°
2026-04-21 09:46 61.67164 25.29765 23218 ft 471 kts 181°
2026-04-21 09:47 61.63902 25.29615 22621 ft 465 kts 181°
2026-04-21 09:47 61.60686 25.29467 22034 ft 459 kts 181°
2026-04-21 09:47 61.57509 25.29320 21459 ft 454 kts 181°
2026-04-21 09:47 61.54473 25.29177 20904 ft 449 kts 181°
2026-04-21 09:48 61.51364 25.29031 20316 ft 444 kts 181°
2026-04-21 09:48 61.48293 25.28886 19743 ft 440 kts 181°
2026-04-21 09:48 61.45242 25.28743 19161 ft 437 kts 181°
2026-04-21 09:48 61.42208 25.28601 18570 ft 434 kts 180°
2026-04-21 09:49 61.39197 25.28461 17929 ft 431 kts 180°
2026-04-21 09:49 61.36212 25.28320 17334 ft 427 kts 180°
2026-04-21 09:49 61.33253 25.28180 16760 ft 423 kts 180°
2026-04-21 09:49 61.30329 25.28044 16172 ft 420 kts 180°
2026-04-21 09:50 61.27415 25.27912 15573 ft 417 kts 180°
2026-04-21 09:50 61.26471 25.27871 15387 ft 415 kts 180°
2026-04-21 09:50 61.18813 25.27529 13788 ft 407 kts 180°
2026-04-21 09:51 61.16031 25.27401 13173 ft 404 kts 180°
2026-04-21 09:51 61.13236 25.27274 12596 ft 399 kts 180°
2026-04-21 09:51 61.10477 25.27151 12017 ft 395 kts 180°
2026-04-21 09:51 61.07754 25.27031 11640 ft 385 kts 180°
2026-04-21 09:52 61.05130 25.26912 11498 ft 369 kts 180°
2026-04-21 09:52 61.02610 25.26798 11362 ft 354 kts 180°
2026-04-21 09:52 61.00199 25.26691 11229 ft 340 kts 180°
2026-04-21 09:52 60.97870 25.26586 11092 ft 327 kts 180°
2026-04-21 09:53 60.95635 25.26487 10955 ft 315 kts 180°
2026-04-21 09:53 60.93486 25.26458 10821 ft 303 kts 177°
2026-04-21 09:53 60.91397 25.26608 10543 ft 298 kts 176°
2026-04-21 09:53 60.89336 25.26785 10223 ft 294 kts 176°
2026-04-21 09:54 60.87273 25.26952 9943 ft 303 kts 176°
2026-04-21 09:54 60.85135 25.27111 9807 ft 309 kts 176°
2026-04-21 09:54 60.82996 25.27258 9465 ft 307 kts 176°
2026-04-21 09:54 60.80858 25.27407 9001 ft 307 kts 176°
2026-04-21 09:55 60.78733 25.27546 8647 ft 303 kts 176°
2026-04-21 09:55 60.76640 25.27677 8337 ft 300 kts 176°
2026-04-21 09:55 60.74556 25.27814 8012 ft 299 kts 176°
2026-04-21 09:55 60.72486 25.27945 7708 ft 297 kts 177°
2026-04-21 09:56 60.70427 25.27848 7377 ft 295 kts 188°
2026-04-21 09:56 60.68539 25.26345 7082 ft 292 kts 217°
2026-04-21 09:56 60.67076 25.23601 6792 ft 288 kts 229°
2026-04-21 09:56 60.65758 25.20624 6645 ft 277 kts 230°
2026-04-21 09:57 60.64504 25.17745 6511 ft 266 kts 230°
2026-04-21 09:57 60.63142 25.15284 6315 ft 260 kts 210°
2026-04-21 09:57 60.61440 25.14445 6129 ft 250 kts 175°
2026-04-21 09:57 60.59805 25.15323 5930 ft 238 kts 156°
2026-04-21 09:58 60.58800 25.16177 5768 ft 234 kts 154°
2026-04-21 09:58 60.57326 25.17499 5475 ft 228 kts 153°
2026-04-21 09:58 60.55881 25.18807 5211 ft 225 kts 154°
2026-04-21 09:58 60.54449 25.20083 4987 ft 224 kts 154°
2026-04-21 09:59 60.53053 25.21301 4844 ft 211 kts 155°
2026-04-21 09:59 60.51755 25.22430 4638 ft 196 kts 155°
2026-04-21 09:59 60.50520 25.23501 4309 ft 191 kts 154°
2026-04-21 09:59 60.49310 25.24546 4087 ft 185 kts 155°
2026-04-21 10:00 60.48151 25.25551 3949 ft 177 kts 154°
2026-04-21 10:00 60.46967 25.26202 3858 ft 178 kts 177°
2026-04-21 10:00 60.46469 25.26056 3786 ft 173 kts 199°
2026-04-21 10:01 60.46199 25.25879 3761 ft 170 kts 200°
2026-04-21 10:01 60.45209 25.24681 3587 ft 163 kts 224°
2026-04-21 10:01 60.44441 25.23056 3419 ft 157 kts 232°
2026-04-21 10:01 60.43713 25.21424 3170 ft 154 kts 231°
2026-04-21 10:02 60.42281 25.18255 2918 ft 152 kts 229°
2026-04-21 10:02 60.41565 25.16671 2697 ft 151 kts 230°
2026-04-21 10:02 60.40854 25.15098 2474 ft 151 kts 231°
2026-04-21 10:03 60.40153 25.13548 2278 ft 150 kts 231°
2026-04-21 10:03 60.39449 25.12000 2063 ft 149 kts 229°
2026-04-21 10:03 60.38754 25.10461 1850 ft 148 kts 230°
2026-04-21 10:03 60.38068 25.08937 1661 ft 146 kts 231°
2026-04-21 10:04 60.37379 25.07413 1457 ft 147 kts 231°
2026-04-21 10:04 60.36691 25.05893 1246 ft 147 kts 230°
2026-04-21 10:04 60.36008 25.04387 1048 ft 144 kts 231°
2026-04-21 10:04 60.35338 25.02909 836 ft 144 kts 231°
2026-04-21 10:05 60.34655 25.01406 674 ft 143 kts 231°
2026-04-21 10:05 60.33987 24.99955 486 ft 142 kts 232°
2026-04-21 10:05 60.33326 24.98485 298 ft 140 kts 232°
2026-04-21 10:05 60.32684 24.97060 178 ft 126 kts 227°
2026-04-21 10:06 60.32272 24.96147 171 ft 46 kts 227°
2026-04-21 10:06 60.32079 24.95762 168 ft 35 kts 216°
2026-04-21 10:06 60.31903 24.95617 166 ft 20 kts 195°